Theta_e
310 311 311 319 323 323 328 327 325 329 329 327 325 330 336 342 348 349 348 351 347 347 345 339 333 332 331 330 331 332 336 343 345 345 344 339 332 328 333 338 337 336 337 333 325 330 331 328 330
310 313 319 316 322 327 327 324 327 327 327 323 325 340 349 346 341 350 350 350 348 346 345 339 333 332 331 330 330 329 329 332 339 342 340 335 331 329 336 336 336 336 336 331 326 332 332 333 339
311 315 318 321 319 324 325 324 325 326 323 325 326 331 350 355 353 349 348 351 349 346 343 338 334 332 331 331 331 329 328 329 332 334 334 331 327 331 335 336 333 332 330 330 325 333 333 335 339
311 310 311 321 323 320 323 325 322 323 323 324 324 326 349 350 354 348 351 351 349 347 344 338 334 333 332 331 332 331 328 329 332 331 329 326 328 334 336 335 333 333 329 326 324 329 332 333 335
309 306 312 317 319 320 321 322 323 324 323 323 323 325 354 349 353 353 352 352 349 349 346 339 335 334 332 331 332 332 330 329 331 330 329 329 333 336 337 336 334 334 330 324 323 324 329 331 333
307 304 308 311 315 317 318 321 322 322 320 321 320 337 352 348 352 353 353 352 349 347 346 342 336 335 334 332 332 332 333 330 330 328 328 327 332 335 336 336 335 335 334 327 324 324 325 328 331
306 305 306 307 309 310 315 316 319 320 319 319 320 344 351 349 351 352 353 352 351 349 347 342 338 336 335 335 333 332 333 333 331 329 327 325 326 331 335 335 336 338 335 326 324 326 326 326 328
305 306 307 306 309 309 312 313 314 316 316 316 340 341 345 347 352 352 353 353 351 350 348 344 342 339 337 337 336 334 332 333 335 332 330 330 331 334 335 339 339 340 335 327 323 324 326 327 327
305 306 306 307 309 309 311 313 314 315 315 314 345 350 347 350 352 352 352 353 353 352 347 344 345 344 343 342 339 338 335 333 335 334 332 331 330 332 335 340 342 341 336 330 327 325 325 325 326
305 304 305 307 308 311 311 311 312 313 313 314 330 348 349 350 351 351 350 351 352 353 351 346 345 345 345 345 344 342 340 337 334 335 335 334 333 333 334 335 337 338 336 331 332 330 327 325 324
304 307 306 309 310 309 311 311 311 312 311 313 316 349 348 349 349 350 350 349 349 348 348 346 345 344 344 343 344 344 343 342 338 334 335 336 336 335 335 335 336 337 337 334 332 332 330 326 324
305 304 307 307 309 311 311 312 311 310 311 312 326 344 349 350 348 348 348 348 348 347 347 348 348 348 347 345 347 347 346 344 342 338 335 337 338 338 337 335 334 335 336 335 332 330 331 330 328
305 307 305 306 306 307 307 309 310 310 311 311 311 323 347 349 348 347 347 346 343 349 349 349 349 349 348 350 345 346 347 346 345 342 337 336 337 339 339 338 336 334 334 334 333 332 332 331 332
307 306 308 307 307 307 308 309 309 310 311 311 311 319 342 348 347 345 345 346 343 345 350 349 349 347 346 347 346 347 346 346 346 345 341 338 338 339 341 340 338 334 331 331 332 333 335 336 338
307 308 307 306 307 308 307 308 308 310 310 310 316 340 345 346 345 346 347 344 343 340 348 349 347 346 346 345 344 345 343 345 345 345 344 342 341 341 342 340 341 334 333 340 340 339 339 340 341
308 306 307 306 306 307 308 309 309 309 310 311 311 336 344 343 345 346 346 344 341 340 340 343 345 347 346 344 343 343 342 344 344 343 343 342 341 340 341 339 335 336 333 340 342 343 343 343 341
310 312 307 310 306 308 307 308 309 309 309 311 310 330 342 340 337 343 345 344 342 341 341 345 347 348 346 344 343 342 343 342 340 340 343 335 337 339 338 338 334 337 337 339 340 341 332 342 343
311 314 314 311 309 307 307 308 310 310 310 310 309 311 337 339 339 339 342 343 341 341 341 344 347 347 345 344 344 345 344 344 342 342 340 340 341 343 343 343 342 341 335 343 339 341 342 342 343
310 312 312 311 312 310 307 307 307 307 308 308 308 309 309 333 337 338 337 338 340 340 342 343 344 345 344 344 343 343 343 343 343 342 343 344 345 345 345 344 344 344 344 342 342 342 341 341 342
312 314 313 312 311 309 310 309 308 308 308 307 308 308 309 311 329 334 336 337 338 339 340 340 340 344 344 344 344 343 341 342 343 344 344 341 339 342 340 340 340 334 335 337 338 338 337 338 337
315 315 312 313 312 311 312 310 311 311 308 308 308 308 309 309 311 325 335 337 337 337 339 339 338 338 343 344 345 344 344 343 343 344 343 342 339 341 339 334 334 334 334 335 335 335 334 335 329
315 316 313 313 311 312 310 310 311 311 310 310 308 307 307 308 309 315 332 332 336 335 332 333 335 335 338 342 342 342 338 335 337 339 339 338 335 334 334 334 335 337 337 338 335 332 331 333 338
316 317 316 316 311 311 311 310 310 311 314 312 315 319 321 319 306 309 327 332 331 332 331 332 332 334 335 336 336 338 338 333 333 332 331 331 333 335 333 337 339 337 335 335 335 332 335 336 334
316 317 316 310 308 311 309 310 309 312 324 320 320 325 325 324 321 317 320 326 327 329 331 333 333 333 334 335 335 334 334 333 333 332 334 333 334 331 331 334 337 334 336 337 336 335 333 336 333
317 317 313 312 311 313 308 310 310 325 324 323 322 324 323 324 325 325 323 327 328 329 329 330 333 332 334 335 334 333 331 330 329 329 328 325 322 321 321 325 324 325 326 327 331 333 333 333 332
317 314 310 314 312 310 310 311 316 326 325 326 324 324 324 324 322 323 324 323 322 322 323 324 325 323 324 323 322 322 322 321 319 319 318 316 316 315 315 315 315 315 315 315 316 317 318 318 318
319 317 309 310 311 311 316 327 328 327 327 328 325 325 324 322 323 322 319 318 318 317 318 318 319 319 319 319 320 319 318 317 316 316 315 314 314 313 313 313 313 313 313 313 313 313 313 313 313
318 314 315 312 316 318 329 329 330 331 331 329 326 325 325 323 321 319 317 315 315 315 316 317 318 317 317 317 317 316 315 314 314 313 313 312 312 311 310 309 309 308 308 307 307 308 308 308 308
318 317 313 310 315 323 329 329 325 328 327 328 326 325 321 318 315 311 310 309 309 312 313 314 314 314 313 312 312 312 312 312 312 312 310 308 308 308 306 305 305 304 304 303 303 303 303 304 305
318 315 311 314 323 320 321 332 326 325 323 324 323 317 313 310 309 308 308 308 307 307 308 309 310 310 310 311 311 312 311 310 309 308 306 306 306 305 304 303 303 303 303 303 303 303 303 304 304
Wind_Speed
6 7 5 4 3 4 4 7 2 3 3 1 6 5 7 3 0 3 9 12 26 35 32 31 29 28 28 28 28 28 29 29 29 27 25 25 26 26 26 23 20 17 15 15 16 16 16 17 17
4 0 3 2 5 2 6 4 6 4 2 9 6 7 2 3 2 4 7 13 26 37 31 30 29 29 27 26 25 25 26 26 26 25 25 25 25 27 25 22 18 16 15 15 16 16 16 17 16
2 1 3 4 4 7 7 5 7 3 5 3 5 4 3 2 6 5 4 20 28 33 31 30 28 28 27 26 23 22 22 23 23 24 25 25 26 26 24 20 17 15 15 15 15 15 15 15 15
1 5 4 4 7 8 7 3 1 5 4 5 4 6 4 4 4 4 16 24 35 33 31 30 28 27 27 25 23 21 21 21 21 21 23 24 25 25 22 19 17 15 14 14 15 15 14 14 13
4 3 2 3 7 6 3 1 3 5 4 2 5 5 1 2 4 16 24 27 36 31 29 29 28 27 26 24 23 21 20 20 20 20 20 21 22 21 19 17 14 13 12 13 14 14 14 12 11
3 3 2 7 7 6 3 4 1 3 4 2 6 4 2 2 9 17 26 30 35 33 29 27 26 25 24 23 22 21 19 19 18 18 18 19 19 18 16 15 13 11 10 10 11 12 12 12 11
6 4 5 3 4 7 5 6 4 7 10 2 3 3 1 4 13 18 23 31 33 30 29 27 25 24 22 20 21 21 20 18 16 15 17 17 16 15 14 12 11 10 9 9 10 11 11 11 12
5 4 4 5 5 7 3 4 5 5 3 4 1 4 5 4 15 21 23 29 32 32 28 27 25 25 24 22 19 19 19 19 18 16 15 15 15 13 12 11 10 9 9 9 10 11 11 11 11
4 2 4 6 6 5 2 2 1 1 2 2 3 4 4 25 25 22 24 22 25 29 33 32 27 26 26 24 21 19 19 18 17 16 16 15 15 14 13 13 11 10 10 10 10 11 12 12 12
5 4 10 7 6 3 2 2 1 2 5 3 3 4 7 19 22 19 20 22 24 29 35 35 33 30 27 25 24 24 23 21 19 18 17 16 15 15 14 14 13 12 12 12 12 12 13 13 14
7 7 6 5 5 8 5 2 5 4 5 5 4 4 8 9 10 14 17 25 38 41 39 41 40 38 36 32 28 26 25 25 23 22 20 18 15 14 14 14 14 14 13 15 14 15 15 16 16
4 7 4 7 6 5 5 3 6 6 7 8 4 5 9 12 10 11 12 17 23 26 32 34 34 34 32 33 30 27 27 26 26 26 23 20 18 16 15 14 15 15 16 17 18 18 18 18 19
4 3 6 12 8 7 6 11 9 2 7 11 9 8 13 14 11 12 12 14 12 17 20 26 26 27 25 25 28 24 26 25 26 25 23 21 19 17 15 15 15 16 17 19 20 21 21 21 22
6 11 10 5 6 5 7 9 6 3 5 8 8 12 14 16 12 11 17 24 18 17 20 24 30 29 26 27 24 26 25 26 26 25 23 22 19 17 15 16 16 17 18 20 20 21 22 24 25
4 3 5 5 8 8 3 14 7 9 9 11 7 9 7 14 13 18 29 23 25 17 21 24 29 29 29 27 24 25 23 25 25 23 24 24 20 19 18 14 19 19 18 18 20 19 21 25 28
5 6 9 6 9 7 10 8 3 7 7 11 11 8 8 9 13 20 22 26 22 17 17 20 25 30 30 29 27 23 23 24 24 21 24 24 19 19 20 16 16 20 21 20 19 23 21 26 27
4 4 5 2 10 7 9 4 12 9 9 12 9 7 8 7 6 17 24 26 23 19 15 17 22 27 30 28 25 23 24 22 22 24 27 21 24 23 17 17 17 16 21 23 22 21 22 25 30
6 6 4 6 8 10 6 3 8 3 5 9 8 7 8 8 14 19 26 27 22 20 16 17 21 24 26 26 25 25 24 23 23 24 23 21 21 20 19 21 19 15 20 26 25 24 21 18 22
12 4 9 5 7 6 6 6 10 8 4 8 9 8 9 10 11 17 18 21 22 23 20 17 21 25 26 26 24 23 25 24 22 21 20 19 16 18 17 19 18 21 22 25 23 16 11 19 19
13 6 4 2 4 5 4 5 8 4 6 8 11 9 10 6 6 7 17 21 26 30 29 25 23 24 25 25 24 17 24 24 27 27 25 27 23 18 16 18 21 19 22 29 27 16 8 18 19
19 14 5 5 2 1 2 5 5 5 5 6 7 6 7 11 11 8 7 21 25 27 33 34 26 23 23 23 23 16 15 20 20 26 29 25 21 19 19 17 19 27 30 33 37 34 21 19 19
18 10 6 6 4 2 2 4 4 3 6 6 9 8 7 8 7 7 7 10 22 28 17 19 20 21 22 22 20 19 10 5 9 16 17 15 15 16 19 22 25 29 30 31 23 23 17 15 22
7 15 11 4 4 2 2 4 7 1 3 7 3 8 5 6 8 9 9 20 12 13 13 11 10 11 14 15 15 18 18 6 7 4 4 8 6 9 7 14 11 11 10 18 22 20 21 23 17
13 13 8 4 4 4 6 6 5 1 3 7 4 5 6 6 7 6 5 10 14 18 17 19 19 15 12 11 11 10 7 3 2 3 5 5 1 2 3 5 11 14 12 17 24 23 25 26 29
18 16 4 1 2 5 9 6 5 3 4 5 2 4 7 8 8 7 8 10 16 18 21 21 21 20 14 13 12 10 12 15 16 13 13 12 11 12 11 9 9 9 6 7 6 8 12 14 16
13 11 5 6 5 4 1 7 4 2 3 4 5 7 12 13 11 12 12 15 21 23 26 32 33 32 28 27 27 24 22 20 19 17 15 14 14 13 10 12 11 11 9 8 7 6 5 4 6
23 10 8 6 1 6 4 2 2 4 5 6 8 12 14 14 13 14 13 20 22 24 25 32 36 32 27 25 22 20 18 17 17 14 13 14 12 12 12 12 13 12 12 12 12 11 11 11 10
23 12 9 1 5 5 3 5 6 5 7 8 10 15 15 14 15 15 14 21 23 27 29 31 31 29 24 22 19 17 16 15 14 13 14 12 12 12 13 14 12 12 12 13 14 12 11 13 12
10 12 5 5 4 5 5 3 4 6 6 12 12 12 13 13 13 12 12 22 24 29 30 31 29 27 24 21 18 17 16 14 12 14 13 14 14 14 16 16 15 14 14 14 14 13 11 12 12
4 13 6 5 2 2 3 3 3 7 7 9 11 10 9 12 12 12 15 22 22 23 27 27 24 22 18 17 17 18 16 13 12 12 10 11 14 15 13 12 13 14 15 14 14 14 12 12 13
Wind_Direction
298 306 313 21 40 53 254 252 256 310 344 303 275 258 248 51 224 240 344 159 162 160 163 162 160 153 148 145 144 144 146 149 153 151 150 151 152 153 152 152 151 153 152 147 141 136 132 130 128
331 8 71 78 121 169 257 213 186 216 279 314 311 326 316 37 89 107 109 157 164 162 163 161 160 153 150 147 145 144 144 150 155 156 157 156 157 156 155 156 155 155 154 150 147 145 140 137 135
12 114 102 148 171 188 237 175 173 256 313 308 348 300 2 12 346 178 151 158 163 162 164 163 162 156 153 149 146 144 143 148 153 157 159 160 160 160 160 160 157 157 157 157 157 154 150 146 146
111 23 27 136 214 252 207 164 92 335 40 40 5 323 69 67 324 289 159 161 165 163 165 165 166 162 157 154 151 148 147 149 153 158 162 163 162 164 164 164 164 164 165 166 167 166 163 160 160
50 61 125 230 243 245 245 297 22 338 317 9 325 286 317 6 45 143 152 160 164 163 166 167 170 168 163 159 157 153 150 152 158 161 164 166 167 168 169 169 169 170 172 173 175 177 177 176 176
49 95 121 223 234 267 292 221 265 252 258 294 316 277 237 170 137 137 155 160 166 164 167 167 173 171 167 166 164 161 158 157 161 164 169 173 174 174 175 176 177 182 186 187 185 186 189 190 194
136 108 217 216 254 273 193 218 220 247 275 222 253 251 196 172 150 151 155 161 164 165 167 170 173 172 171 173 171 170 169 165 164 170 175 177 180 184 189 190 191 197 205 208 204 201 201 203 206
127 128 192 224 190 268 249 201 225 200 263 306 66 253 272 171 155 158 154 154 163 167 170 171 174 175 176 177 178 179 179 178 177 177 181 185 188 191 196 199 205 218 228 228 224 221 221 221 223
126 152 206 209 175 224 286 181 218 346 265 300 342 291 295 146 154 145 144 149 154 168 173 176 179 181 181 181 183 186 188 188 186 185 186 188 198 203 206 212 218 231 243 246 246 244 243 245 246
162 184 208 202 177 175 252 237 269 264 325 310 303 41 116 146 152 157 167 165 166 170 178 180 182 187 188 187 190 191 192 195 195 196 194 199 200 207 215 222 230 240 251 253 257 261 262 261 261
201 225 176 200 175 196 242 272 212 176 261 205 256 229 162 170 174 170 188 185 178 181 182 189 189 189 187 188 193 194 197 196 198 202 204 206 207 212 221 231 239 246 254 261 265 267 266 268 270
228 212 183 207 210 191 221 231 278 173 231 247 222 211 177 191 211 202 204 202 197 190 190 192 192 188 190 188 188 192 196 199 200 203 205 210 211 217 227 235 241 247 253 262 266 268 271 272 276
205 220 210 230 229 239 271 255 258 247 267 261 263 214 209 206 195 204 224 234 238 196 199 198 192 190 184 194 186 195 200 204 207 208 209 211 216 224 235 247 250 251 254 258 265 270 276 277 280
205 195 226 233 227 229 221 253 181 290 330 269 257 246 213 209 187 193 223 225 218 202 195 199 199 200 196 195 189 196 204 206 212 213 212 215 223 226 232 250 259 260 257 258 263 272 281 285 286
231 261 271 206 219 248 173 275 214 226 246 267 255 228 220 217 173 202 216 230 222 201 192 192 197 201 202 198 198 203 209 213 215 214 218 219 216 228 231 237 262 260 257 265 271 270 277 284 289
147 160 233 198 177 239 157 257 255 225 203 242 244 207 218 224 208 210 217 230 226 219 208 206 203 203 205 203 203 206 212 215 216 217 223 220 226 228 227 227 250 262 259 259 266 279 285 290 292
230 187 177 180 178 194 177 226 253 220 202 231 237 197 214 231 246 220 219 229 229 226 223 215 209 208 207 206 207 209 214 215 217 223 223 223 226 227 220 237 223 247 263 263 263 260 270 283 291
190 157 182 173 203 186 177 240 285 272 185 231 226 215 198 212 234 219 220 226 223 219 217 212 212 213 210 207 207 209 214 215 217 222 228 229 227 229 226 225 232 218 243 255 260 255 254 267 285
192 155 185 187 195 149 208 204 244 259 208 244 250 229 227 214 232 237 219 218 217 215 208 205 208 209 205 200 198 206 208 207 212 219 223 227 231 235 233 236 245 247 243 251 262 267 280 297 294
232 192 188 252 145 142 186 228 233 228 221 201 220 221 218 219 230 227 205 205 214 217 217 223 223 219 212 205 204 208 212 218 221 220 236 247 252 245 259 262 257 268 265 256 251 242 280 275 285
211 207 168 131 63 52 115 301 238 243 219 214 234 218 203 214 212 218 201 208 213 217 221 227 231 223 215 209 211 213 217 230 227 244 251 258 260 275 267 255 264 278 276 269 263 252 256 254 254
205 175 157 149 94 187 115 263 278 237 258 219 225 211 219 235 243 190 205 195 214 220 216 219 220 214 214 216 219 222 224 234 256 260 268 268 266 263 268 275 275 275 273 266 261 237 230 261 258
198 162 179 143 134 103 284 81 265 340 237 228 60 75 54 337 253 236 206 207 205 187 189 199 199 208 216 228 237 238 242 236 257 278 299 272 265 246 265 263 261 272 250 247 236 255 270 260 248
156 160 145 73 107 255 194 141 280 93 297 309 1 37 43 14 357 360 94 105 111 126 131 133 131 134 154 164 181 204 229 255 267 329 39 30 342 297 268 285 267 277 277 255 250 243 247 246 231
162 154 119 121 188 216 179 144 231 320 324 251 293 46 74 68 57 48 75 87 87 94 110 112 119 104 116 127 122 113 99 92 90 87 79 81 72 53 37 37 30 29 4 322 301 253 238 236 235
183 162 148 154 153 155 191 185 264 35 42 66 87 86 77 71 72 79 87 86 81 87 99 107 105 104 104 104 99 97 93 91 90 88 80 67 58 52 38 38 44 33 20 11 360 353 341 311 312
187 195 152 106 168 115 166 63 61 71 63 74 87 87 83 84 74 71 70 74 80 82 88 98 102 103 102 99 96 90 87 85 86 84 81 77 59 48 32 28 22 12 355 352 347 347 337 339 338
181 156 159 18 147 126 209 167 170 166 139 116 106 99 91 84 79 75 70 72 74 83 91 95 97 95 92 89 86 85 79 74 74 71 63 58 56 30 16 5 7 354 347 343 334 326 320 322 317
148 170 136 136 129 142 139 218 200 156 153 135 118 105 100 92 86 81 77 76 80 86 90 92 93 95 92 91 89 86 83 81 79 67 50 35 25 22 7 357 349 343 345 341 329 326 326 326 320
134 169 120 133 172 89 115 155 94 126 127 135 112 95 89 90 94 91 87 85 75 76 83 89 89 91 96 99 99 98 97 93 84 74 50 29 22 9 4 355 350 351 346 341 335 335 336 334 326